Date,TemperatureHighF,TemperatureAvgF,TemperatureLowF,DewpointHighF,DewpointAvgF,DewpointLowF,HumidityHigh,HumidityAvg,HumidityLow,PressureMaxIn,PressureMinIn,WindSpeedMaxMPH,WindSpeedAvgMPH,GustSpeedMaxMPH,PrecipitationSumIn
2013-1-1,25,20,16,17,13,9,83,75,57,30.12,29.99,19,4,19,0.00
2013-1-2,24,21,17,22,17,12,90,85,73,30.11,30.02,17,4,17,0.00
2013-1-3,27,23,18,24,20,12,93,86,75,30.10,29.97,22,5,22,0.00
2013-1-4,30,27,24,25,23,20,92,85,79,30.10,29.95,32,10,32,0.00
2013-1-5,36,28,19,31,26,17,98,90,68,30.16,29.88,15,3,15,0.00
2013-1-6,33,31,27,32,29,22,99,92,82,30.21,29.77,17,5,18,0.04
2013-1-7,36,30,27,26,22,17,89,73,49,30.23,30.01,25,6,25,0.00
2013-1-8,38,31,26,31,26,23,90,82,70,30.12,30.00,14,4,14,0.01
2013-1-9,43,37,30,34,30,25,86,75,60,30.35,29.88,34,9,34,0.01
2013-1-10,41,32,22,32,27,20,96,81,62,30.47,30.00,20,3,22,0.24
2013-1-11,50,43,34,50,42,32,99,98,94,30.01,29.62,22,6,22,0.63
2013-1-12,56,46,35,49,42,32,97,84,59,29.86,29.66,28,6,29,0.03
2013-1-13,35,29,21,33,28,17,98,94,84,30.03,29.74,26,5,26,0.22
2013-1-14,24,19,16,17,15,13,91,83,73,30.37,30.02,23,4,23,0.00
2013-1-15,30,22,14,21,16,12,95,81,60,30.36,30.08,11,2,11,0.00
2013-1-16,33,26,19,29,22,16,94,84,60,30.08,29.70,32,7,32,0.00
2013-1-17,31,24,16,29,17,8,91,76,62,30.28,29.91,24,5,24,0.00
2013-1-18,38,24,9,30,18,6,91,77,64,30.34,29.80,27,6,27,0.00
2013-1-19,42,40,35,37,33,21,86,77,53,29.81,29.46,35,11,36,0.01
2013-1-20,37,15,12,22,9,4,88,75,53,30.14,29.48,40,8,43,0.00
2013-1-21,13,7,-1,10,2,-6,89,80,65,30.11,29.96,24,6,25,0.00
2013-1-22,9,0,-6,-1,-5,-9,88,78,60,30.27,30.11,19,4,19,0.00
2013-1-23,15,8,-4,13,5,-7,91,87,81,30.27,30.02,14,3,15,0.00
2013-1-24,19,9,0,6,2,-2,91,73,45,30.58,30.16,11,1,11,0.00
2013-1-25,19,15,10,17,11,2,94,84,67,30.43,29.92,16,3,16,0.00
2013-1-26,28,22,18,21,17,15,95,84,65,30.37,30.01,13,2,13,0.00
2013-1-27,28,24,20,27,20,17,95,84,69,30.38,29.98,16,4,16,0.00
2013-1-28,42,34,28,41,33,27,99,96,91,29.98,29.75,19,4,20,0.31
2013-1-29,54,45,30,54,44,30,100,99,96,29.90,29.30,22,5,22,1.51
2013-1-30,51,38,22,51,37,19,100,98,86,29.32,29.01,28,5,28,0.53
2013-1-31,22,17,13,20,14,10,92,88,79,29.86,29.27,29,9,29,0.00
2013-2-1,14,12,9,11,8,6,92,86,73,30.17,29.86,25,6,25,0.00
2013-2-2,18,11,1,12,7,-2,93,85,63,30.11,29.96,10,1,11,0.00
2013-2-3,17,11,0,13,7,-3,91,85,72,29.98,29.83,23,3,23,0.00
2013-2-4,20,14,5,14,11,3,93,87,73,29.97,29.84,8,1,8,0.00
2013-2-5,27,17,5,25,14,1,93,88,84,29.97,29.71,18,4,19,0.00
2013-2-6,32,23,10,21,18,8,96,81,62,30.21,29.97,10,2,15,0.00
2013-2-7,30,27,24,30,25,20,98,91,76,30.17,29.83,13,4,13,0.00
2013-2-8,33,25,15,26,21,12,98,85,59,30.32,29.82,19,4,19,0.00
2013-2-9,31,16,2,20,12,0,94,84,65,30.38,30.16,11,2,12,0.00
2013-2-10,39,26,15,38,23,13,98,90,79,30.16,29.55,19,5,20,0.29
2013-2-11,43,36,28,42,33,24,98,90,80,29.81,29.42,39,11,39,0.01
2013-2-12,28,26,24,24,22,20,88,84,81,29.97,29.80,24,7,24,0.00
2013-2-13,37,29,22,29,25,20,94,87,70,29.85,29.66,9,3,18,0.00
2013-2-14,38,32,25,33,30,21,97,93,81,29.83,29.54,17,6,24,0.10
2013-2-15,25,22,16,21,15,12,92,76,63,30.09,29.83,12,4,15,0.00
2013-2-16,21,16,8,15,12,5,94,83,57,30.07,29.97,8,2,12,0.00
2013-2-17,24,12,1,10,6,-1,92,75,53,30.18,30.07,7,2,12,0.00
2013-2-18,43,31,17,41,22,10,96,71,59,30.09,29.45,17,6,24,0.04
2013-2-19,42,23,14,40,21,11,96,91,84,29.90,29.28,24,12,35,0.06
2013-2-20,21,17,13,16,12,9,88,81,74,30.24,29.90,18,8,23,0.00
2013-2-21,23,20,16,17,15,12,86,82,72,30.33,30.15,22,5,23,0.00
2013-2-22,31,24,17,30,22,14,98,92,87,30.14,29.78,17,6,23,0.00
2013-2-23,30,27,24,29,25,22,97,91,75,29.84,29.76,17,6,23,0.00
2013-2-24,38,29,23,28,24,21,95,83,61,30.09,29.82,11,4,16,0.13
2013-2-25,41,28,14,27,22,12,97,80,55,30.16,30.03,6,1,8,0.00
2013-2-26,35,29,24,31,25,20,99,84,71,30.06,29.48,22,8,30,0.00
2013-2-27,34,32,31,33,32,31,99,99,98,29.55,29.42,12,4,19,0.14
2013-2-28,36,32,28,31,28,23,98,87,76,29.95,29.55,11,5,17,0.02
2013-3-1,29,24,18,23,18,14,83,76,65,30.11,29.95,14,4,16,0.00
2013-3-2,29,19,11,17,13,9,91,78,59,30.11,30.03,15,2,15,0.00
2013-3-3,31,22,12,17,14,9,88,73,52,30.06,29.96,16,3,16,0.00
2013-3-4,33,20,6,18,12,4,95,74,44,30.12,30.03,8,1,8,0.00
2013-3-5,31,24,17,23,19,12,93,80,70,30.08,29.81,22,6,22,0.00
2013-3-6,42,32,25,30,27,23,95,82,61,30.16,29.91,16,4,18,0.00
2013-3-7,36,30,22,29,23,17,93,74,53,30.35,30.15,14,3,15,0.00
2013-3-8,42,28,14,25,19,12,94,72,44,30.45,30.32,10,1,10,0.00
2013-3-9,40,34,26,34,26,20,86,73,59,30.33,29.89,19,4,20,0.00
2013-3-10,47,43,36,44,40,32,97,89,70,29.89,29.62,13,3,13,0.37
2013-3-11,49,43,32,47,41,32,99,94,80,29.63,29.38,24,5,24,0.15
2013-3-12,32,29,25,32,26,24,98,89,76,29.82,29.56,22,7,22,0.01
2013-3-13,30,25,20,24,17,12,94,75,53,30.18,29.82,27,7,27,0.00
2013-3-14,37,27,15,24,18,13,92,70,45,30.22,30.01,18,4,18,0.00
2013-3-15,37,33,28,33,30,24,95,89,79,30.01,29.79,20,4,21,0.01
2013-3-16,36,28,22,26,22,17,95,80,57,30.01,29.71,19,5,19,0.05
2013-3-17,28,24,20,19,14,10,82,67,49,30.22,30.01,15,4,16,0.00
2013-3-18,32,25,18,30,22,13,97,88,79,30.09,29.51,19,6,23,0.00
2013-3-19,31,22,18,30,18,13,95,85,64,29.89,29.53,32,11,32,0.00
2013-3-20,22,19,12,16,12,10,91,76,67,29.92,29.85,24,6,24,0.00
2013-3-21,29,22,14,24,18,11,94,85,71,29.93,29.84,20,5,22,0.00
2013-3-22,36,28,24,24,21,18,84,73,57,29.99,29.91,16,4,16,0.01
2013-3-23,39,30,24,25,23,20,86,75,55,30.08,29.98,11,2,11,0.00
2013-3-24,35,28,21,26,23,19,94,80,64,30.00,29.66,21,4,21,0.00
2013-3-25,38,32,28,28,25,22,84,75,61,29.92,29.61,24,7,24,0.00
2013-3-26,40,33,29,32,29,26,94,84,63,30.10,29.92,19,4,19,0.01
2013-3-27,44,35,28,29,26,22,95,72,49,30.18,30.10,21,6,22,0.00
2013-3-28,48,36,26,27,24,20,94,65,37,30.23,30.17,16,3,16,0.00
2013-3-29,50,37,23,31,23,19,88,61,34,30.23,30.15,17,2,18,0.00
2013-3-30,54,40,22,33,25,17,97,61,29,30.16,29.80,16,3,16,0.00
2013-3-31,47,41,32,41,36,28,97,84,59,29.80,29.58,25,6,25,0.04
2013-4-1,32,27,24,29,17,13,93,66,53,30.05,29.69,24,6,24,0.00
2013-4-2,37,28,18,23,16,10,93,65,37,30.21,30.04,23,5,23,0.00
2013-4-3,44,31,18,20,17,13,88,59,30,30.39,30.20,16,2,16,0.00
2013-4-4,51,39,25,26,21,18,78,51,31,30.28,29.89,23,6,24,0.00
2013-4-5,48,38,29,28,20,11,77,50,24,30.13,29.89,19,4,19,0.00
2013-4-6,57,43,31,43,25,15,74,51,34,30.13,29.59,27,7,27,0.00
2013-4-7,53,42,34,48,37,30,97,81,64,29.95,29.46,31,7,31,0.14
2013-4-8,48,39,32,48,37,29,99,93,85,29.94,29.58,25,5,25,0.52
2013-4-9,44,40,38,44,40,37,99,99,97,29.99,29.80,16,4,16,1.77
2013-4-10,40,38,36,39,36,31,98,94,83,29.99,29.76,24,7,25,0.57
2013-4-11,36,34,32,33,32,30,97,94,80,29.92,29.59,33,10,33,0.99
2013-4-12,38,34,31,36,33,31,99,95,83,29.69,29.48,24,6,24,0.19
2013-4-13,39,34,32,34,30,25,99,85,61,29.91,29.69,28,8,33,0.10
2013-4-14,44,36,28,39,32,27,96,86,77,30.03,29.78,21,4,24,0.04
2013-4-15,63,51,40,55,46,36,97,84,71,29.84,29.73,23,6,23,0.66
2013-4-16,52,45,39,45,37,32,98,75,51,30.19,29.82,20,5,20,0.27
2013-4-17,49,42,37,40,36,31,97,79,57,30.27,29.90,23,6,24,0.68
2013-4-18,61,52,41,59,50,40,100,96,86,29.91,29.33,25,6,25,2.17
2013-4-19,60,37,32,57,32,25,96,83,71,29.67,29.30,41,13,43,0.26
2013-4-20,37,30,26,26,19,14,80,63,49,30.39,29.67,30,6,30,0.02
2013-4-21,50,37,23,31,24,17,90,62,40,30.54,30.34,19,4,19,0.00
2013-4-22,63,48,33,35,30,26,84,53,28,30.34,30.05,15,4,15,0.00
2013-4-23,61,49,38,51,42,33,97,77,50,30.05,29.74,16,4,16,0.54
2013-4-24,45,37,32,36,29,20,97,77,39,30.02,29.79,22,5,22,0.19
2013-4-25,48,40,34,37,31,26,97,73,46,30.25,29.94,25,6,25,0.23
2013-4-26,63,49,35,40,34,29,81,58,37,30.33,30.18,21,5,21,0.00
2013-4-27,70,58,45,47,40,34,79,54,30,30.21,29.98,15,4,15,0.00
2013-4-28,64,56,52,53,46,36,93,68,46,29.98,29.73,15,3,16,0.00
2013-4-29,70,58,48,56,51,47,99,82,48,29.83,29.75,14,2,14,0.00
2013-4-30,77,64,55,62,57,52,97,77,58,29.87,29.74,10,6,24,0.69
2013-5-1,84,77,62,61,56,54,81,50,38,30.07,29.87,17,4,18,0.00
2013-5-2,81,68,58,62,56,54,90,69,42,30.09,29.95,14,3,15,0.03
2013-5-3,79,63,53,59,52,37,95,70,35,30.01,29.88,23,3,24,0.00
2013-5-4,73,65,56,50,44,33,68,48,27,29.99,29.91,17,4,17,0.00
2013-5-5,74,63,52,50,40,31,65,46,24,29.99,29.90,17,3,19,0.00
2013-5-6,76,63,49,47,39,30,74,45,22,29.97,29.87,14,2,15,0.00
2013-5-7,77,65,51,52,46,36,74,51,30,29.97,29.88,14,2,15,0.00
2013-5-8,78,66,52,55,51,46,90,63,32,29.94,29.85,17,2,17,0.00
2013-5-9,80,67,50,53,48,40,98,56,27,29.87,29.78,18,2,18,0.00
2013-5-10,62,48,42,53,46,40,97,92,64,29.83,29.69,17,4,19,0.57
2013-5-11,52,44,35,47,41,34,97,91,74,29.84,29.65,26,5,31,0.14
2013-5-12,43,38,32,35,29,25,96,72,51,30.05,29.82,25,7,26,0.00
2013-5-13,53,41,24,31,26,21,98,60,31,30.12,29.99,17,2,17,0.00
2013-5-14,72,60,43,55,44,26,78,56,47,29.99,29.53,21,4,22,0.00
2013-5-15,76,69,55,58,49,40,76,51,28,29.72,29.44,19,5,22,0.00
2013-5-16,80,67,48,52,45,38,88,50,29,29.93,29.71,14,3,17,0.00
2013-5-17,62,57,49,47,44,39,72,62,45,30.05,29.93,15,3,15,0.00
2013-5-18,80,66,53,56,50,45,77,58,39,30.06,29.89,16,2,16,0.00
2013-5-19,85,72,56,64,56,46,71,57,46,29.91,29.72,12,2,13,0.00
2013-5-20,85,74,67,73,65,59,98,74,45,29.76,29.63,23,4,23,0.13
2013-5-21,78,71,62,68,64,61,98,79,57,29.66,29.58,33,4,33,0.16
2013-5-22,69,64,57,66,63,57,99,95,83,29.61,29.51,22,3,22,1.02
2013-5-23,58,51,40,57,49,36,100,93,75,30.14,29.59,23,4,23,0.72
2013-5-24,62,47,33,46,38,32,96,73,40,30.31,30.14,15,3,15,0.00
2013-5-25,64,51,36,43,38,32,98,66,33,30.33,30.20,14,1,14,0.00
2013-5-26,67,55,39,44,40,36,96,60,36,30.27,30.13,10,2,10,0.00
2013-5-27,60,52,46,50,44,37,98,74,48,30.14,29.87,18,4,19,0.01
2013-5-28,73,60,51,68,59,50,100,96,78,29.88,29.66,16,3,16,1.01
2013-5-29,76,66,59,68,64,58,100,93,72,29.87,29.68,17,2,17,0.59
2013-5-30,84,76,66,72,67,62,94,75,60,29.88,29.75,21,5,22,0.00
2013-5-31,78,72,65,68,66,62,96,80,61,29.81,29.67,23,5,23,0.25
2013-6-1,77,70,64,67,64,60,97,82,60,29.69,29.53,24,5,24,0.22
2013-6-2,64,53,41,63,49,39,98,87,70,29.94,29.52,19,5,20,0.03
2013-6-3,66,51,34,48,42,33,100,73,41,30.03,29.93,19,2,19,0.00
2013-6-4,72,58,44,52,46,41,96,67,44,30.12,30.02,11,1,11,0.00
2013-6-5,68,59,55,51,46,37,80,64,36,30.08,29.92,15,1,16,0.04
2013-6-6,66,57,52,54,50,47,91,78,59,29.94,29.81,13,2,14,0.06
2013-6-7,74,60,47,52,49,45,95,69,40,29.87,29.76,15,2,16,0.00
2013-6-8,73,61,48,57,52,48,98,74,48,29.95,29.81,8,1,9,0.00
2013-6-9,79,67,55,64,58,52,92,74,57,29.97,29.81,17,3,18,0.00
2013-6-10,68,64,60,65,61,55,99,91,67,29.81,29.66,10,2,11,0.12
2013-6-11,79,66,57,69,62,57,100,88,66,29.83,29.72,16,3,16,0.01
2013-6-12,75,66,58,68,63,57,100,92,73,29.83,29.55,13,1,13,0.61
2013-6-13,76,66,57,64,59,54,99,79,55,29.88,29.53,23,4,23,0.47
2013-6-14,78,64,52,57,53,47,95,70,36,30.02,29.88,16,2,16,0.00
2013-6-15,74,64,50,63,58,49,96,81,64,29.97,29.75,21,2,21,0.00
2013-6-16,76,68,61,67,63,58,99,84,60,29.79,29.66,19,5,20,0.56
2013-6-17,81,68,56,63,59,55,99,75,41,29.83,29.74,35,2,36,0.56
2013-6-18,70,61,52,58,51,44,100,73,41,30.00,29.82,18,2,18,0.00
2013-6-19,74,60,43,53,46,41,97,63,33,30.09,30.00,10,1,11,0.00
2013-6-20,83,68,49,59,53,47,96,64,38,30.10,30.02,9,1,9,0.00
2013-6-21,82,74,63,68,63,54,84,68,56,30.07,29.88,18,3,18,0.00
2013-6-22,85,75,68,71,67,65,91,78,56,29.98,29.84,12,3,13,0.00
2013-6-23,86,77,68,71,68,66,95,75,53,29.92,29.81,19,4,19,0.00
2013-6-24,83,75,69,71,68,64,91,78,56,29.92,29.76,21,4,21,0.00
2013-6-25,78,70,65,70,66,63,98,90,73,29.86,29.71,21,3,21,0.49
2013-6-26,84,73,64,74,69,64,100,87,68,29.75,29.62,12,1,12,0.01
2013-6-27,83,74,65,73,68,64,99,84,60,29.64,29.55,20,2,20,0.00
2013-6-28,78,67,62,66,64,60,99,89,61,29.55,29.43,20,2,20,0.17
2013-6-29,71,65,59,64,61,59,100,90,73,29.67,29.47,14,1,14,0.02
2013-6-30,79,69,60,63,59,52,96,71,43,29.90,29.67,16,2,16,0.00
2013-7-1,77,66,55,56,51,44,79,61,40,30.01,29.90,21,3,21,0.00
2013-7-2,68,64,56,62,54,40,93,73,46,30.01,29.95,13,2,13,0.16
2013-7-3,79,67,57,68,62,50,97,83,61,30.01,29.91,14,2,15,0.52
2013-7-4,77,69,60,65,62,60,99,81,57,30.02,29.95,10,1,13,0.00
2013-7-5,83,74,61,67,64,60,99,73,52,30.01,29.92,9,1,10,0.00
2013-7-6,84,75,64,70,67,63,97,78,56,29.98,29.86,9,2,10,0.10
2013-7-7,83,76,68,72,70,67,98,80,61,29.91,29.83,13,2,14,0.00
2013-7-8,75,73,68,72,70,67,98,89,84,29.89,29.83,15,3,17,0.01
2013-7-9,85,75,66,75,71,66,99,89,63,29.89,29.73,17,1,19,0.21
2013-7-10,78,73,58,74,66,55,99,80,55,29.87,29.68,20,5,22,0.00
2013-7-11,81,69,52,60,57,52,100,67,42,29.97,29.87,12,1,13,0.00
2013-7-12,82,70,55,61,58,51,98,68,39,30.08,29.97,8,1,9,0.00
2013-7-13,84,76,59,65,60,57,98,61,43,30.10,30.03,13,2,13,0.00
2013-7-14,89,76,60,72,66,58,97,73,51,30.15,30.09,11,1,11,0.00
2013-7-15,93,83,68,76,72,67,99,72,50,30.17,30.10,13,1,13,0.00
2013-7-16,89,82,71,77,74,70,98,76,63,30.19,30.12,14,3,14,0.00
2013-7-17,90,82,73,78,74,70,96,78,60,30.16,30.04,19,3,19,0.00
2013-7-18,91,84,72,77,73,71,97,71,53,30.05,29.79,20,3,20,0.00
2013-7-19,89,83,78,74,73,72,89,72,58,29.81,29.58,31,6,31,0.00
2013-7-20,82,74,63,72,63,51,95,70,45,29.85,29.61,15,2,18,0.03
2013-7-21,81,72,57,67,60,50,83,66,50,29.92,29.81,11,1,12,0.00
2013-7-22,83,74,64,70,67,63,99,79,59,29.86,29.62,18,1,18,0.00
2013-7-23,76,69,55,70,61,48,96,76,56,29.84,29.55,22,5,23,0.03
2013-7-24,73,64,48,53,50,46,94,61,41,29.97,29.84,12,2,12,0.00
2013-7-25,77,66,48,57,53,47,98,66,42,30.01,29.94,12,2,12,0.00
2013-7-26,72,64,58,63,60,53,98,85,66,29.97,29.77,16,2,16,0.38
2013-7-27,68,61,50,62,56,48,99,84,72,29.77,29.70,18,5,19,0.00
2013-7-28,64,57,48,55,52,47,98,84,63,29.86,29.71,22,4,22,0.12
2013-7-29,68,61,54,59,56,53,98,83,68,30.10,29.85,14,3,14,0.04
2013-7-30,79,66,46,62,56,46,100,75,47,30.14,30.01,9,1,9,0.01
2013-7-31,68,65,60,66,63,59,99,94,83,30.02,29.80,6,1,7,0.17
2013-8-1,76,68,59,64,58,53,100,73,47,29.84,29.80,17,4,19,0.01
2013-8-2,72,66,57,66,62,55,97,87,78,29.83,29.74,17,2,17,0.01
2013-8-3,75,67,55,60,55,52,99,70,47,29.99,29.81,16,3,16,0.01
2013-8-4,73,64,51,56,53,50,98,69,46,30.10,29.99,14,2,14,0.00
2013-8-5,71,62,46,60,55,45,99,79,52,30.03,29.84,9,1,11,0.00
2013-8-6,75,69,62,69,65,60,98,88,79,29.85,29.75,13,2,13,0.01
2013-8-7,81,73,64,72,67,61,98,82,69,29.84,29.71,18,4,18,0.93
2013-8-8,77,68,56,61,55,51,98,66,42,29.95,29.84,11,2,11,0.00
2013-8-9,77,69,52,63,59,51,98,73,52,29.94,29.85,19,3,19,0.00
2013-8-10,76,68,57,60,56,53,94,67,47,30.05,29.93,11,1,12,0.00
2013-8-11,74,66,55,60,58,54,98,77,55,30.03,29.95,11,1,12,0.00
2013-8-12,75,67,60,67,63,58,96,86,71,29.96,29.75,12,2,12,0.00
2013-8-13,66,57,49,58,49,46,93,75,54,30.02,29.80,11,3,17,0.00
2013-8-14,70,56,41,54,48,41,99,76,47,30.12,30.02,13,2,13,0.00
2013-8-15,75,60,45,60,51,44,99,76,40,30.08,29.99,15,2,15,0.00
2013-8-16,81,64,48,60,53,47,100,73,37,30.11,30.03,10,1,11,0.00
2013-8-17,82,69,51,62,55,51,100,66,36,30.16,30.07,12,1,13,0.00
2013-8-18,81,67,51,62,56,50,100,72,42,30.13,30.00,13,1,13,0.00
2013-8-19,81,66,50,63,58,50,100,76,46,30.02,29.94,17,2,17,0.00
2013-8-20,83,71,59,69,63,57,95,76,50,30.02,29.95,17,2,17,0.00
2013-8-21,86,76,67,70,66,64,91,72,51,29.99,29.84,20,3,20,0.00
2013-8-22,76,68,62,70,66,62,100,96,74,29.99,29.82,28,2,32,1.64
2013-8-23,82,67,52,65,54,49,99,68,33,30.10,29.99,9,1,10,0.00
2013-8-24,83,67,52,64,57,51,100,74,40,30.20,30.09,11,1,11,0.00
2013-8-25,85,73,61,69,63,57,87,71,56,30.16,30.01,20,4,20,0.00
2013-8-26,81,74,69,72,69,65,96,83,72,30.03,29.85,17,3,17,0.13
2013-8-27,88,77,70,78,73,69,98,87,68,29.89,29.68,17,3,17,1.14
2013-8-28,85,75,69,73,72,68,100,90,63,29.92,29.68,13,2,13,0.13
2013-8-29,88,75,63,72,68,63,100,81,51,29.99,29.88,7,1,8,0.01
2013-8-30,86,74,65,74,70,65,99,86,63,29.89,29.64,21,3,21,0.01
2013-8-31,78,69,62,67,64,62,100,87,66,29.76,29.69,12,1,12,0.01
2013-9-1,82,70,61,73,66,60,100,91,71,29.75,29.60,13,2,13,0.01
2013-9-2,69,62,57,68,57,52,98,84,71,29.86,29.65,17,4,18,0.00
2013-9-3,73,60,50,59,54,49,97,81,56,29.96,29.86,16,2,16,0.00
2013-9-4,78,65,53,66,59,52,100,84,61,30.03,29.92,19,3,19,0.01
2013-9-5,72,59,48,59,49,42,98,73,38,30.19,30.02,13,2,13,0.00
2013-9-6,78,62,45,59,52,44,97,73,42,30.17,29.95,13,2,13,0.00
2013-9-7,80,68,63,71,63,55,97,83,67,29.94,29.78,20,2,20,0.08
2013-9-8,74,67,58,66,60,53,99,81,56,30.00,29.84,14,2,14,0.01
2013-9-9,83,68,57,74,64,53,99,87,72,29.95,29.73,11,2,12,0.95
2013-9-10,89,81,74,73,70,66,91,70,48,29.86,29.72,26,4,26,0.00
2013-9-11,82,74,64,71,67,63,97,79,57,29.92,29.83,17,2,17,0.00
2013-9-12,74,64,53,64,58,48,99,81,56,29.95,29.80,20,3,21,0.06
2013-9-13,63,53,44,48,43,35,94,72,37,30.07,29.94,19,3,19,0.00
2013-9-14,67,52,35,53,45,35,99,80,51,30.11,29.98,16,2,16,0.00
2013-9-15,58,54,52,56,50,44,99,85,67,30.07,29.94,11,1,11,0.12
2013-9-16,60,51,44,54,47,41,99,85,60,30.30,30.07,12,2,12,0.01
2013-9-17,66,51,35,50,43,34,99,77,41,30.33,30.11,12,1,12,0.00
2013-9-18,76,62,49,59,53,47,94,75,51,30.11,29.88,17,2,17,0.00
2013-9-19,74,67,62,70,64,56,99,88,73,29.91,29.73,17,3,17,1.48
2013-9-20,71,68,62,69,66,59,98,94,88,29.75,29.62,16,4,16,0.24
2013-9-21,61,57,51,59,52,46,97,84,63,29.83,29.60,19,4,20,0.00
2013-9-22,54,49,40,47,44,39,97,84,66,30.01,29.82,11,1,11,0.00
2013-9-23,63,49,36,48,43,36,99,82,56,30.11,30.01,11,1,11,0.00
2013-9-24,68,52,40,52,47,39,99,82,56,30.07,29.91,11,1,11,0.01
2013-9-25,71,56,44,54,49,43,99,81,47,29.94,29.88,9,1,10,0.01
2013-9-26,75,56,42,57,50,42,99,82,41,30.04,29.92,7,0,8,0.01
2013-9-27,76,60,45,58,52,44,99,76,44,30.14,30.04,10,1,10,0.00
2013-9-28,77,64,53,61,55,51,98,74,46,30.07,29.83,18,4,18,0.00
2013-9-29,69,61,47,62,54,46,97,79,52,29.92,29.80,15,2,15,0.42
2013-9-30,70,56,46,57,51,45,99,85,53,29.92,29.82,12,1,12,0.00
2013-10-1,68,61,52,64,59,50,98,92,86,29.85,29.80,20,4,20,0.01
2013-10-2,75,63,50,62,51,40,100,72,31,30.01,29.82,7,1,7,0.00
2013-10-3,78,64,48,69,58,44,97,82,65,29.96,29.80,16,2,16,0.08
2013-10-4,76,69,63,70,66,62,99,92,77,29.92,29.77,12,1,12,0.40
2013-10-5,74,65,60,69,64,60,100,96,83,29.92,29.68,11,2,12,0.48
2013-10-6,69,59,47,68,57,46,98,96,86,29.69,29.57,16,3,16,0.14
2013-10-7,59,50,46,51,48,45,99,90,64,30.00,29.57,20,3,20,0.14
2013-10-8,70,56,43,53,48,42,96,75,51,30.15,30.00,15,2,16,0.01
2013-10-9,70,57,44,52,48,42,98,73,45,30.21,30.09,10,2,10,0.00
2013-10-10,72,56,41,54,47,40,99,76,41,30.13,30.02,9,1,10,0.00
2013-10-11,70,56,40,52,47,39,98,75,43,30.06,29.96,11,1,11,0.00
2013-10-12,76,62,50,61,54,46,98,77,47,30.00,29.89,19,3,19,0.17
2013-10-13,61,52,44,59,47,42,98,84,58,30.30,30.00,15,2,15,0.01
2013-10-14,61,48,37,44,40,33,99,76,38,30.36,30.18,11,1,11,0.01
2013-10-15,63,52,42,59,50,40,98,92,80,30.18,29.68,15,3,15,0.34
2013-10-16,60,51,48,60,49,46,99,94,88,29.79,29.68,21,3,21,0.13
2013-10-17,49,46,38,49,46,38,99,98,95,29.80,29.66,14,1,15,0.44
2013-10-18,58,46,39,51,43,38,99,88,65,29.81,29.74,24,4,24,0.02
2013-10-19,51,44,38,43,39,30,96,84,47,29.80,29.64,23,3,23,0.18
2013-10-20,54,45,35,48,40,34,99,84,55,29.80,29.65,15,2,15,0.11
2013-10-21,51,45,37,50,40,27,98,84,67,29.79,29.66,24,5,24,0.06
2013-10-22,46,39,30,34,31,26,95,72,58,29.82,29.77,17,4,17,0.00
2013-10-23,42,34,28,36,29,25,98,83,55,29.88,29.78,18,2,19,0.00
2013-10-24,43,34,28,35,31,27,98,87,69,30.13,29.86,20,3,21,0.01
2013-10-25,44,36,27,34,30,26,98,80,55,30.26,29.91,23,3,23,0.01
2013-10-26,52,45,36,42,36,30,92,71,56,29.94,29.66,38,8,38,0.15
2013-10-27,50,40,29,36,32,26,91,75,55,29.97,29.88,24,3,24,0.00
2013-10-28,43,40,33,37,34,30,96,80,70,30.34,29.95,17,3,18,0.00
2013-10-29,44,38,34,35,32,30,94,80,69,30.37,30.15,11,2,11,0.00
2013-10-30,57,45,32,55,42,31,98,91,77,30.15,29.77,23,2,23,0.18
2013-10-31,61,58,55,60,58,54,99,98,97,29.77,28.97,23,5,23,1.03
2013-11-1,55,45,43,54,44,42,99,97,91,29.57,29.03,33,7,33,0.31
2013-11-2,47,42,39,44,40,36,99,92,69,30.03,29.57,11,2,12,0.07
2013-11-3,47,38,28,37,33,27,98,82,61,30.32,30.03,12,2,13,0.00
2013-11-4,51,42,35,40,32,27,90,71,44,30.33,30.13,20,6,21,0.00
2013-11-5,60,52,48,49,45,40,90,79,66,30.22,29.96,14,4,14,0.00
2013-11-6,55,48,38,54,47,37,98,95,74,29.96,29.61,32,7,32,0.91
2013-11-7,40,35,31,37,28,25,95,76,61,30.07,29.93,21,5,21,0.00
2013-11-8,43,36,28,32,27,24,86,72,51,30.21,30.01,17,2,17,0.00
2013-11-9,49,45,38,42,37,32,81,73,65,30.01,29.69,31,8,31,0.00
2013-11-10,46,40,33,35,31,29,85,71,54,30.18,29.82,26,7,28,0.00
2013-11-11,43,33,25,38,29,19,96,85,75,30.32,29.95,21,5,21,0.25
2013-11-12,32,25,20,24,19,15,95,77,54,30.53,30.32,21,4,23,0.00
2013-11-13,40,29,19,27,21,16,92,74,47,30.47,30.05,33,7,33,0.00
2013-11-14,46,39,31,34,29,25,83,68,57,30.06,29.86,27,7,27,0.00
2013-11-15,49,42,38,37,32,30,77,69,55,29.92,29.85,16,4,16,0.00
2013-11-16,55,47,38,53,42,31,97,86,76,29.94,29.55,25,6,25,0.32
2013-11-17,63,57,45,60,55,42,98,96,86,29.56,29.02,44,9,44,0.91
2013-11-18,43,36,32,40,30,24,89,76,70,30.09,29.40,27,11,35,0.00
2013-11-19,41,32,27,25,23,21,82,70,50,30.30,30.09,19,3,19,0.00
2013-11-20,42,34,27,32,26,22,84,71,50,30.32,30.13,23,5,23,0.00
2013-11-21,48,42,36,43,38,32,98,88,77,30.16,30.08,11,2,11,0.13
2013-11-22,44,34,24,43,32,22,98,89,74,30.33,30.07,20,4,21,0.00
2013-11-23,26,21,14,23,15,7,93,77,53,30.51,30.23,31,7,32,0.00
2013-11-24,22,17,13,14,10,7,86,76,59,30.57,30.28,18,4,19,0.00
2013-11-25,31,24,19,30,19,9,96,81,64,30.29,29.95,22,7,22,0.00
2013-11-26,32,29,23,29,26,18,93,89,79,29.98,29.88,18,4,19,0.00
2013-11-27,28,20,14,18,13,9,93,74,52,30.15,29.96,23,4,24,0.00
2013-11-28,24,21,16,21,18,11,95,89,79,30.38,30.15,13,2,13,0.00
2013-11-29,28,21,11,26,18,9,96,89,78,30.60,30.38,7,1,8,0.00
2013-11-30,43,34,23,32,26,18,84,75,63,30.44,29.97,18,5,18,0.01
2013-12-1,40,35,32,33,29,24,94,79,64,30.00,29.94,10,1,11,0.00
2013-12-2,41,33,29,29,27,23,94,79,59,29.94,29.80,10,2,11,0.00
2013-12-3,32,30,28,32,28,23,98,92,78,29.82,29.73,15,4,15,0.00
2013-12-4,55,40,32,54,39,32,100,99,85,29.78,29.45,25,4,25,0.12
2013-12-5,54,34,23,50,28,17,89,80,67,30.09,29.46,33,10,33,0.00
2013-12-6,23,20,17,17,13,10,82,76,69,30.36,30.08,16,5,16,0.00
2013-12-7,19,14,8,13,8,4,90,75,62,30.57,30.36,16,4,16,0.00
2013-12-8,20,14,6,18,11,4,94,87,70,30.54,29.93,14,3,14,0.00
2013-12-9,26,21,12,25,17,5,97,87,68,30.05,29.79,29,8,29,0.00
2013-12-10,18,14,10,16,11,6,93,88,77,30.13,29.84,25,6,25,0.00
2013-12-11,17,12,5,14,8,0,92,83,64,30.40,30.13,20,4,20,0.00
2013-12-12,21,13,4,18,11,2,93,91,88,30.39,30.11,21,5,21,0.00
2013-12-13,24,22,17,19,17,13,90,82,71,30.21,30.08,14,3,15,0.00
2013-12-14,18,16,12,16,13,9,93,90,84,30.20,29.83,19,6,19,0.00
2013-12-15,20,16,12,18,12,7,95,87,79,29.98,29.76,26,5,26,0.00
2013-12-16,19,13,4,12,8,2,92,80,64,30.12,29.94,11,2,13,0.00
2013-12-17,28,22,13,27,20,11,96,93,84,29.95,29.77,19,4,19,0.00
2013-12-18,28,25,22,23,19,13,96,79,62,30.05,29.74,20,5,20,0.00
2013-12-19,36,31,26,32,28,18,98,89,70,29.91,29.72,14,3,14,0.05
2013-12-20,31,29,26,30,28,25,98,97,95,29.82,29.68,12,3,12,0.00
2013-12-21,31,28,26,30,28,25,98,98,95,29.82,29.65,13,2,13,0.00
2013-12-22,29,27,22,28,26,21,96,95,91,29.94,29.53,12,3,14,0.00
2013-12-23,27,21,16,21,19,14,96,92,77,30.23,29.93,6,0,6,0.00
2013-12-24,23,15,8,16,12,6,94,88,70,30.43,30.22,6,0,6,0.00
2013-12-25,23,18,10,22,16,8,96,92,87,30.40,29.99,10,3,10,0.00
2013-12-26,24,22,19,23,20,16,96,91,81,30.17,29.95,12,3,12,0.00
2013-12-27,37,29,22,33,27,21,97,93,85,30.22,29.93,22,3,22,0.16
2013-12-28,45,38,30,36,33,29,97,83,68,29.99,29.74,21,6,21,0.43
2013-12-29,41,34,15,33,29,8,94,80,70,29.99,29.64,22,6,22,0.00
2013-12-30,15,13,11,11,8,2,90,78,67,30.21,29.99,11,3,11,0.00
2013-12-31,14,12,9,11,8,5,91,85,78,30.29,30.03,14,5,22,0.00
2014-1-1,11,9,7,6,3,1,86,76,65,30.36,30.24,14,3,14,0.00
2014-1-2,10,7,-2,6,1,-7,85,76,63,30.31,30.16,19,5,19,0.00